User: anonymous   Login
Location: Mount Kobau Star Party
(49.1167°N, 119.7333°W)
Time: 12:17:41
(UTC-07:00)
Language:

TSX-5 - Orbit

View from above orbital plane
View from above orbital plane
View from above satellite
View from above satellite

Ground track
Ground track

The orbit data is extracted from the following two-line orbital elements,

1 26374U 00030A   14304.10330110  .00010960  00000-0  94997-3 0  4437
2 26374 068.9358 193.9330 0695008 279.5440 183.7961 13.94817522721579
Epoch (UTC): 31 October 2014 02:28:45
Eccentricity: 0.0695008
inclination: 68.9358°
perigee height: 405 km
apogee height: 1418 km
right ascension of ascending node: 193.9330°
argument of perigee: 279.5440°
revolutions per day: 13.94817522
mean anomaly at epoch: 183.7961°
orbit number at epoch: 72157

The dashed part of the orbit path shows where the satellite is in the earth's shadow,  

DLR